TimeEST,TemperatureF,Dew PointF,Humidity,Sea Level PressureIn,VisibilityMPH,Wind Direction,Wind SpeedMPH,Gust SpeedMPH,PrecipitationIn,Events,Conditions,WindDirDegrees,DateUTC
12:54 AM,44.1,37.0,76,30.56,-9999.0,NNE,9.2,18.4,N/A,,Unknown,30,2012-11-19 05:54:00
1:54 AM,44.1,37.0,76,30.56,-9999.0,NNE,8.1,16.1,N/A,,Unknown,30,2012-11-19 06:54:00
2:54 AM,44.1,37.0,76,30.53,-9999.0,NNE,9.2,-,N/A,,Unknown,30,2012-11-19 07:54:00
3:54 AM,44.1,37.0,76,30.51,-9999.0,NE,11.5,19.6,N/A,,Unknown,50,2012-11-19 08:54:00
4:54 AM,45.0,37.0,74,30.51,-9999.0,NE,9.2,17.3,N/A,,Unknown,50,2012-11-19 09:54:00
6:54 AM,45.0,37.9,76,30.50,-9999.0,NE,6.9,-,N/A,,Unknown,50,2012-11-19 11:54:00
7:54 AM,45.0,37.9,76,30.49,-9999.0,NNE,6.9,-,N/A,,Unknown,30,2012-11-19 12:54:00
8:54 AM,45.0,37.9,76,30.48,-9999.0,NE,9.2,-,N/A,,Unknown,40,2012-11-19 13:54:00
9:54 AM,46.9,39.9,77,30.46,-9999.0,NE,8.1,-,N/A,,Unknown,50,2012-11-19 14:54:00
10:54 AM,48.9,39.9,71,30.44,-9999.0,NE,9.2,17.3,N/A,,Unknown,40,2012-11-19 15:54:00
1:54 PM,50.0,41.0,71,30.37,-9999.0,NNE,9.2,-,N/A,,Unknown,30,2012-11-19 18:54:00
2:54 PM,50.0,39.9,68,30.36,-9999.0,NE,8.1,17.3,N/A,,Unknown,40,2012-11-19 19:54:00
3:54 PM,50.0,39.9,68,30.35,-9999.0,NE,6.9,-,N/A,,Unknown,40,2012-11-19 20:54:00
4:54 PM,50.0,39.9,68,30.34,-9999.0,NNE,6.9,-,N/A,,Unknown,30,2012-11-19 21:54:00
5:54 PM,48.9,39.9,71,30.34,-9999.0,NNE,6.9,-,N/A,,Unknown,30,2012-11-19 22:54:00
6:54 PM,48.9,39.9,71,30.32,-9999.0,NNE,9.2,-,N/A,,Unknown,20,2012-11-19 23:54:00
7:54 PM,46.9,39.9,77,30.30,-9999.0,NNE,10.4,17.3,N/A,,Unknown,20,2012-11-20 00:54:00
8:54 PM,46.0,39.9,79,30.29,-9999.0,NNE,8.1,-,N/A,,Unknown,30,2012-11-20 01:54:00
9:54 PM,45.0,39.0,80,30.28,-9999.0,NNE,6.9,-,N/A,,Unknown,20,2012-11-20 02:54:00
10:54 PM,45.0,37.9,76,30.27,-9999.0,NNE,8.1,-,N/A,,Unknown,20,2012-11-20 03:54:00
11:54 PM,44.1,37.9,79,30.26,-9999.0,NNE,6.9,-,N/A,,Unknown,20,2012-11-20 04:54:00